Location: Bittkow
(50.3000°N, 19.0000°E)
Time: 16:08:53
(UTC+00:00)

ATLAS 2AS CENTAUR R/B - Pass Details

Date: 19 September 2020
Orbit: 939 x 1273 km, 63.7° (Epoch: 27 October)

Event Time Altitude Azimuth Distance (km) Brightness Sun altitude
Rises 00:50:04 0° 299° (WNW) 4,229 5.7 -31.1°
Reaches altitude 10° 00:53:21 10° 309° (NW) 3,238 5.2 -30.8°
Maximum altitude 01:00:11 32° 10° (N) 1,973 4.5 -30.1°
Drops below altitude 10° 01:06:40 10° 71° (ENE) 3,061 5.8 -29.4°
Sets 01:09:40 0° 82° (E) 3,968 6.4 -29.0°
